• In Portugal
  • List of Countries
  • For 7 days
  • Water Temperature
  • Satellite Maps
  • Weather Map
  • Weather Widgets
  • user-avatar
    Login

    Hourly Weather Sacapa

    Today, 20 September, Wednesday

    Time Temperature Precipitation Wind Pressure Humidity
    00:00 +22°C° 0.5 mm 1 mps 696 mmHg 93%
    01:00 +22°C° 0.1 mm 1 mps 696 mmHg 93%
    02:00 +22°C° 0.1 mm 1 mps 696 mmHg 93%
    03:00 +22°C° 0.1 mm 1 mps 696 mmHg 93%
    04:00 +21°C° 0 mm 1 mps 696 mmHg 93%
    05:00 +21°C° 0 mm 1 mps 696 mmHg 93%
    06:00 +21°C° 0 mm 1 mps 696 mmHg 93%
    07:00 +24°C° 0 mm 1 mps 697 mmHg 82%
    08:00 +25°C° 0 mm 0 mps 697 mmHg 72%
    09:00 +27°C° 0 mm 0 mps 698 mmHg 61%
    10:00 +31°C° 0.2 mm 1 mps 698 mmHg 56%
    11:00 +33°C° 0.2 mm 1 mps 698 mmHg 51%
    12:00 +34°C° 0.2 mm 1 mps 698 mmHg 46%
    13:00 +34°C° 0.3 mm 1 mps 697 mmHg 48%
    14:00 +33°C° 0.3 mm 1 mps 696 mmHg 50%
    15:00 +32°C° 0.3 mm 1 mps 695 mmHg 52%
    16:00 +30°C° 0.6 mm 1 mps 695 mmHg 61%
    17:00 +28°C° 0.6 mm 1 mps 695 mmHg 70%
    18:00 +26°C° 0.6 mm 1 mps 695 mmHg 78%
    19:00 +25°C° 0.6 mm 1 mps 695 mmHg 82%
    20:00 +24°C° 0.6 mm 1 mps 696 mmHg 86%
    21:00 +21°C° 0.6 mm 0 mps 696 mmHg 89%
    22:00 +21°C° 0.1 mm 0 mps 696 mmHg 90%
    23:00 +21°C° 0.1 mm 0 mps 696 mmHg 91%

    Tomorrow, 21 September, Thursday

    Time Temperature Precipitation Wind Pressure Humidity
    00:00 +21°C° 0.1 mm 0 mps 696 mmHg 92%
    01:00 +20°C° 0 mm 0 mps 696 mmHg 93%
    02:00 +20°C° 0 mm 0 mps 695 mmHg 94%
    03:00 +20°C° 0 mm 0 mps 695 mmHg 94%
    04:00 +20°C° 0 mm 0 mps 695 mmHg 94%
    05:00 +20°C° 0 mm 0 mps 695 mmHg 94%
    06:00 +19°C° 0 mm 0 mps 695 mmHg 94%
    07:00 +22°C° 0 mm 0 mps 696 mmHg 84%
    08:00 +25°C° 0 mm 0 mps 696 mmHg 74%
    09:00 +28°C° 0 mm 0 mps 697 mmHg 63%
    10:00 +31°C° 0.1 mm 1 mps 697 mmHg 58%
    11:00 +32°C° 0.1 mm 1 mps 697 mmHg 53%
    12:00 +34°C° 0.1 mm 1 mps 696 mmHg 48%
    13:00 +33°C° 0.4 mm 1 mps 696 mmHg 51%
    14:00 +32°C° 0.4 mm 1 mps 695 mmHg 54%
    15:00 +32°C° 0.4 mm 1 mps 694 mmHg 57%
    16:00 +30°C° 0.9 mm 1 mps 694 mmHg 65%
    17:00 +28°C° 0.9 mm 1 mps 694 mmHg 73%
    18:00 +26°C° 0.9 mm 1 mps 694 mmHg 81%
    19:00 +25°C° 1 mm 1 mps 694 mmHg 84%
    20:00 +22°C° 1 mm 0 mps 695 mmHg 87%
    21:00 +22°C° 1 mm 0 mps 696 mmHg 90%
    22:00 +21°C° 0.6 mm 0 mps 695 mmHg 90%
    23:00 +21°C° 0.6 mm 0 mps 695 mmHg 91%

    Day after tomorrow, 22 September, Friday

    Time Temperature Precipitation Wind Pressure Humidity
    00:00 +21°C° 0.6 mm 0 mps 695 mmHg 92%
    01:00 +21°C° 0.5 mm 0 mps 695 mmHg 93%
    02:00 +20°C° 0.5 mm 0 mps 694 mmHg 93%
    03:00 +20°C° 0.5 mm 0 mps 694 mmHg 93%
    04:00 +20°C° 0.2 mm 0 mps 694 mmHg 93%
    05:00 +20°C° 0.2 mm 0 mps 694 mmHg 93%
    06:00 +20°C° 0.2 mm 0 mps 694 mmHg 93%
    07:00 +22°C° 0.1 mm 0 mps 695 mmHg 85%
    08:00 +25°C° 0.1 mm 0 mps 696 mmHg 76%
    09:00 +27°C° 0.1 mm 0 mps 697 mmHg 67%
    10:00 +29°C° 0.3 mm 0 mps 696 mmHg 62%
    11:00 +32°C° 0.3 mm 1 mps 696 mmHg 57%
    12:00 +34°C° 0.3 mm 1 mps 696 mmHg 52%
    13:00 +33°C° 1 mm 1 mps 695 mmHg 57%
    14:00 +32°C° 1 mm 1 mps 694 mmHg 61%
    15:00 +31°C° 1 mm 1 mps 693 mmHg 66%
    16:00 +29°C° 1.8 mm 1 mps 693 mmHg 73%
    17:00 +27°C° 1.8 mm 1 mps 693 mmHg 80%
    18:00 +25°C° 1.8 mm 1 mps 693 mmHg 88%
    19:00 +24°C° 1.6 mm 1 mps 694 mmHg 89%
    20:00 +22°C° 1.6 mm 0 mps 694 mmHg 91%
    21:00 +21°C° 1.6 mm 0 mps 695 mmHg 92%
    22:00 +21°C° 1.1 mm 0 mps 695 mmHg 93%
    23:00 +21°C° 1.1 mm 0 mps 694 mmHg 94%

    23 September, Saturday

    Time Temperature Precipitation Wind Pressure Humidity
    00:00 +21°C° 1.1 mm 0 mps 694 mmHg 94%
    01:00 +21°C° 0.8 mm 0 mps 694 mmHg 94%
    02:00 +20°C° 0.8 mm 0 mps 693 mmHg 95%
    03:00 +20°C° 0.8 mm 0 mps 693 mmHg 95%
    04:00 +20°C° 0.2 mm 0 mps 693 mmHg 95%
    05:00 +20°C° 0.2 mm 0 mps 694 mmHg 94%
    06:00 +20°C° 0.2 mm 0 mps 694 mmHg 94%
    07:00 +23°C° 0.2 mm 0 mps 695 mmHg 85%
    08:00 +25°C° 0.2 mm 0 mps 695 mmHg 76%
    09:00 +28°C° 0.2 mm 0 mps 696 mmHg 68%
    10:00 +28°C° 0.7 mm 0 mps 696 mmHg 65%
    11:00 +31°C° 0.7 mm 1 mps 695 mmHg 62%
    12:00 +32°C° 0.7 mm 1 mps 695 mmHg 59%
    13:00 +32°C° 1.2 mm 1 mps 694 mmHg 62%
    14:00 +31°C° 1.2 mm 1 mps 694 mmHg 66%
    15:00 +30°C° 1.2 mm 1 mps 693 mmHg 69%
    16:00 +28°C° 1.9 mm 1 mps 693 mmHg 76%
    17:00 +26°C° 1.9 mm 1 mps 693 mmHg 82%
    18:00 +25°C° 1.9 mm 1 mps 693 mmHg 89%
    19:00 +24°C° 1.9 mm 1 mps 694 mmHg 90%
    20:00 +22°C° 1.9 mm 0 mps 694 mmHg 91%
    21:00 +21°C° 1.9 mm 0 mps 695 mmHg 93%
    22:00 +21°C° 1.1 mm 0 mps 694 mmHg 93%
    23:00 +21°C° 1.1 mm 0 mps 694 mmHg 93%

    24 September, Sunday

    Time Temperature Precipitation Wind Pressure Humidity
    00:00 +21°C° 1.1 mm 0 mps 694 mmHg 94%
    01:00 +21°C° 0.3 mm 0 mps 694 mmHg 94%
    02:00 +20°C° 0.3 mm 0 mps 693 mmHg 94%
    03:00 +20°C° 0.3 mm 0 mps 693 mmHg 94%
    04:00 +20°C° 0.1 mm 0 mps 693 mmHg 94%
    05:00 +20°C° 0.1 mm 0 mps 693 mmHg 94%
    06:00 +20°C° 0.1 mm 0 mps 694 mmHg 94%
    07:00 +22°C° 0.1 mm 0 mps 694 mmHg 88%
    08:00 +24°C° 0.1 mm 0 mps 695 mmHg 81%
    09:00 +26°C° 0.1 mm 0 mps 695 mmHg 75%
    10:00 +27°C° 0.5 mm 0 mps 695 mmHg 69%
    11:00 +29°C° 0.5 mm 0 mps 695 mmHg 63%
    12:00 +32°C° 0.5 mm 1 mps 695 mmHg 58%
    13:00 +32°C° 1.1 mm 1 mps 694 mmHg 59%
    14:00 +31°C° 1.1 mm 1 mps 693 mmHg 61%
    15:00 +31°C° 1.1 mm 1 mps 693 mmHg 62%
    16:00 +29°C° 1.1 mm 1 mps 693 mmHg 70%
    17:00 +27°C° 1.1 mm 1 mps 693 mmHg 77%
    18:00 +25°C° 1.1 mm 1 mps 693 mmHg 85%
    19:00 +25°C° 1.6 mm 1 mps 693 mmHg 87%
    20:00 +22°C° 1.6 mm 0 mps 694 mmHg 89%
    21:00 +22°C° 1.6 mm 0 mps 694 mmHg 92%
    22:00 +21°C° 1.6 mm 0 mps 694 mmHg 93%
    23:00 +21°C° 1.6 mm 0 mps 694 mmHg 94%

    25 September, Monday

    Time Temperature Precipitation Wind Pressure Humidity
    00:00 +21°C° 1.6 mm 0 mps 694 mmHg 94%
    01:00 +21°C° 1.1 mm 0 mps 693 mmHg 95%
    02:00 +21°C° 1.1 mm 0 mps 693 mmHg 95%
    03:00 +21°C° 1.1 mm 0 mps 693 mmHg 95%
    04:00 +21°C° 0.3 mm 0 mps 693 mmHg 95%
    05:00 +21°C° 0.3 mm 0 mps 693 mmHg 94%
    06:00 +21°C° 0.3 mm 0 mps 693 mmHg 94%
    07:00 +22°C° 0.2 mm 0 mps 694 mmHg 89%
    08:00 +24°C° 0.2 mm 0 mps 694 mmHg 84%
    09:00 +25°C° 0.2 mm 0 mps 695 mmHg 79%
    10:00 +27°C° 0.3 mm 0 mps 694 mmHg 74%
    11:00 +28°C° 0.3 mm 0 mps 694 mmHg 69%
    12:00 +31°C° 0.3 mm 1 mps 694 mmHg 63%
    13:00 +31°C° 1.4 mm 1 mps 693 mmHg 67%
    14:00 +30°C° 1.4 mm 1 mps 692 mmHg 71%
    15:00 +29°C° 1.4 mm 1 mps 692 mmHg 74%
    16:00 +27°C° 1.5 mm 1 mps 692 mmHg 80%
    17:00 +26°C° 1.5 mm 1 mps 692 mmHg 85%
    18:00 +24°C° 1.5 mm 1 mps 692 mmHg 91%
    19:00 +24°C° 1 mm 1 mps 692 mmHg 92%
    20:00 +24°C° 1 mm 1 mps 692 mmHg 93%
    21:00 +21°C° 1 mm 0 mps 693 mmHg 94%
    22:00 +23°C° 0.4 mm 1 mps 692 mmHg 94%
    23:00 +23°C° 0.4 mm 1 mps 692 mmHg 95%
    Show more